[[{"header":{"parameterUnit":"m.s-1","parameterCategory":1,"la1":30.2991,"la2":30.254,"lo1":-89.0895,"lo2":-89.0444,"dy":0.0017,"dx":0.0017,"nx":28,"ny":28,"refTime":"2025-05-21T21:00:00:Z","depth":0,"parameterNumber":2,"parameterNumberName":"U-component_of_WINDS"},"data":[0,0,0,0,0,0,0,0,0,0,0,0,0,0,0,0,0,0,0,0,0,0,0,0,0,0,0,0,0,0,0,0,0,0,0,0,0,0,0,0,0,0,0,0,0,0,0,0,0,0,0,0,0,0,0,0,0,0,0.5224,0.5223,0,0.5155,0.5154,0.5153,0.5116,0.5116,0.5116,0.5116,0.5041,0.5039,0.5037,0,0,0,0,0,0,0,0,0,0,0,0,0,0.5319,0.5317,0.5224,0.5223,0.5222,0.5155,0.5154,0.5153,0.5116,0.5116,0.5116,0.5116,0.5042,0.5039,0.5037,0,0,0,0,0,0,0,0,0,0,0,0,0,0.5267,0.5317,0.5224,0.5195,0.5192,0.5155,0.5154,0.5153,0.5116,0.5116,0.5116,0.5116,0.5042,0.504,0.5037,0.5022,0,0,0.5028,0.5027,0,0,0,0,0,0,0,0,0.527,0.5263,0.52,0.5197,0.5194,0.5144,0.516,0.5109,0.5116,0.5145,0.5116,0.5115,0.5075,0.507,0.5057,0.5018,0.5015,0.5028,0.5026,0.5025,0.5024,0,0,0,0,0,0,0,0.5273,0.5266,0.5196,0.5199,0.5195,0.5185,0.5177,0.515,0.5111,0.5142,0.5139,0.5132,0.5073,0.506,0.5055,0.5014,0.5028,0.5025,0.5024,0.5022,0.496,0.496,0,0,0,0,0,0,0.5282,0.5269,0.5198,0.5194,0.5232,0.5183,0.5175,0.516,0.5111,0.5104,0.5132,0.513,0.5065,0.5058,0.5052,0.5031,0.5025,0.5022,0.502,0.496,0.496,0.496,0,0,0,0,0,0,0.5284,0.5276,0.5201,0.5231,0.5221,0.5182,0.5165,0.5159,0.5145,0.5104,0.5096,0.5126,0.5064,0.5056,0.503,0.5028,0.5021,0.5018,0.496,0.496,0.496,0.499,0,0,0,0,0,0,0.5287,0.5277,0.5272,0.5231,0.5219,0.5181,0.5165,0.5157,0.5141,0.5138,0.5096,0.5089,0.5063,0.5034,0.5027,0.5024,0.5016,0.4959,0.496,0.496,0.4989,0.4991,0.4993,0,0,0,0,0,0.5291,0.5282,0.5272,0.5263,0.5212,0.5181,0.5174,0.5147,0.5141,0.5134,0.5108,0.509,0.503,0.5032,0.5023,0.502,0.4959,0.496,0.496,0.4988,0.499,0.4992,0,0,0,0,0,0,0.5321,0.5276,0.5264,0.5242,0.5216,0.5175,0.5166,0.515,0.5124,0.5122,0.5088,0.5079,0.5056,0.5035,0.5038,0.5003,0.4993,0.4991,0.5017,0.5019,0.5021,0.5026,0.5014,0,0,0,0,0,0.5326,0.5306,0.5267,0.5251,0.5239,0.5205,0.5191,0.5172,0.5143,0.5131,0.5103,0.5075,0.5049,0.5033,0.5007,0.4986,0.4976,0.4979,0.4981,0.4983,0.4981,0.4969,0.497,0.496,0.496,0.496,0,0,0.5334,0.5307,0.5296,0.5257,0.5234,0.5214,0.5196,0.5175,0.5159,0.5127,0.5102,0.508,0.5046,0.5022,0.501,0.5004,0.4982,0.4983,0.4985,0.4982,0.4969,0.497,0.4971,0.496,0.496,0.496,0,0,0.5339,0.5316,0.5301,0.528,0.5247,0.5225,0.5221,0.5183,0.5168,0.5142,0.5118,0.5098,0.5055,0.5032,0.5015,0.5013,0.4995,0.5005,0.5015,0.5003,0.5004,0.5004,0.5003,0.5003,0.5004,0.5004,0.5004,0,0.5353,0.5322,0.5295,0.5275,0.5259,0.5232,0.5215,0.5195,0.5155,0.5144,0.5138,0.5084,0.5059,0.503,0.503,0.5017,0.5011,0.5009,0.5006,0.5006,0.5006,0.5005,0.5005,0.5006,0.5006,0.5005,0.5005,0,0.5341,0.532,0.5311,0.5275,0.5258,0.524,0.5209,0.5194,0.5178,0.5156,0.513,0.5099,0.5067,0.5059,0.5041,0.5027,0.5025,0.5013,0.5002,0.5009,0.5007,0.5007,0.5008,0.5007,0.5007,0.5006,0,0,0.5361,0.5312,0.5309,0.5293,0.5255,0.5238,0.5219,0.519,0.5178,0.5151,0.5134,0.5099,0.5089,0.5069,0.5049,0.5038,0.5039,0.5028,0.5026,0.5031,0.5021,0.503,0.503,0.5027,0.5027,0.5027,0.5024,0,0.536,0.5327,0.5302,0.5277,0.5258,0.5232,0.5216,0.5191,0.517,0.515,0.5126,0.5102,0.509,0.5078,0.5067,0.5041,0.5036,0.5041,0.501,0.5009,0.5019,0.5029,0.5037,0.5036,0.5023,0.5023,0.5023,0,0.5354,0.5331,0.5305,0.527,0.5261,0.5247,0.5218,0.5199,0.517,0.5156,0.5135,0.5115,0.5093,0.5085,0.5054,0.5058,0.5044,0.5029,0.5029,0.5024,0.5016,0.5024,0.5035,0.5035,0.5021,0.5021,0.5022,0,0.5372,0.5333,0.5313,0.53,0.5259,0.525,0.5232,0.5203,0.5187,0.5162,0.5151,0.5123,0.5107,0.5086,0.5058,0.5055,0.503,0.502,0.5017,0.5017,0.5012,0.5012,0.502,0.5004,0.5004,0.5004,0.5004,0,0.5373,0.5358,0.5321,0.5308,0.529,0.5262,0.5245,0.5225,0.52,0.5182,0.5158,0.5142,0.5107,0.5086,0.5064,0.5042,0.5035,0.5022,0.5016,0.5024,0.5025,0.5013,0.5012,0.5004,0.5004,0.5004,0.5004,0,0.5389,0.5364,0.534,0.5304,0.5295,0.5283,0.5252,0.5238,0.5217,0.5195,0.5188,0.5155,0.5129,0.51,0.5064,0.5049,0.5029,0.502,0.5039,0.5036,0.5034,0.5035,0.5034,0.5032,0.5018,0.5018,0.5018,0,0.5391,0.5379,0.5343,0.533,0.5314,0.5294,0.5278,0.525,0.5234,0.5201,0.5191,0.5165,0.5141,0.5101,0.5073,0.5046,0.5036,0.5038,0.5032,0.504,0.5036,0.5037,0.5035,0.504,0.504,0.504,0.504,0,0.5398,0.5386,0.5365,0.534,0.5322,0.5301,0.5278,0.5269,0.5236,0.522,0.5194,0.5177,0.5141,0.5115,0.5084,0.5064,0.5047,0.5043,0.5041,0.5048,0.5059,0.5053,0.5043,0.5043,0.5042,0.5042,0.5042,0.5042,0.5406,0.5395,0.5368,0.5346,0.5326,0.5306,0.5292,0.527,0.5249,0.5219,0.5203,0.5178,0.515,0.5107,0.5088,0.5067,0.5061,0.5058,0.5057,0.5057,0.5059,0.5063,0.5062,0.5062,0.5062,0.5061,0.5061,0,0.5411,0.5393,0.5373,0.5343,0.5326,0.5313,0.5287,0.5273,0.5252,0.5227,0.5206,0.5177,0.5151,0.5122,0.5094,0.5083,0.5074,0.5076,0.5076,0.5072,0.5066,0.5071,0.5084,0.5084,0.5084,0.5084,0.5084,0.5084,0.5412,0.5392,0.5377,0.5347,0.5329,0.5306,0.5292,0.5273,0.5254,0.5223,0.5202,0.5184,0.5157,0.5128,0.5103,0.5095,0.5086,0.5091,0.508,0.5075,0.5073,0.5071,0.5075,0.5089,0.5089,0.5088,0.5088,0.5088]},{"header":{"parameterUnit":"m.s-1","parameterCategory":1,"la1":30.2991,"la2":30.254,"lo1":-89.0895,"lo2":-89.0444,"dy":0.0017,"dx":0.0017,"nx":28,"ny":28,"refTime":"2025-05-21T21:00:00:Z","depth":0,"parameterNumber":3,"parameterNumberName":"V-component_of_WINDS"},"data":[0,0,0,0,0,0,0,0,0,0,0,0,0,0,0,0,0,0,0,0,0,0,0,0,0,0,0,0,0,0,0,0,0,0,0,0,0,0,0,0,0,0,0,0,0,0,0,0,0,0,0,0,0,0,0,0,0,0,-2.5358,-2.5359,0,-2.5445,-2.5446,-2.5447,-2.5439,-2.5438,-2.5436,-2.5435,-2.552,-2.5523,-2.5527,0,0,0,0,0,0,0,0,0,0,0,0,0,-2.5182,-2.5186,-2.5358,-2.5359,-2.536,-2.5445,-2.5446,-2.5447,-2.5439,-2.5438,-2.5436,-2.5435,-2.5519,-2.5523,-2.5527,0,0,0,0,0,0,0,0,0,0,0,0,0,-2.5263,-2.5187,-2.5358,-2.5367,-2.5368,-2.5445,-2.5446,-2.5447,-2.544,-2.5438,-2.5436,-2.5434,-2.5518,-2.5523,-2.5528,-2.56,0,0,-2.5544,-2.5546,0,0,0,0,0,0,0,0,-2.5258,-2.5269,-2.5364,-2.5366,-2.5368,-2.5429,-2.5415,-2.5498,-2.544,-2.5412,-2.5435,-2.5433,-2.5491,-2.5498,-2.5519,-2.5604,-2.5607,-2.5544,-2.5547,-2.555,-2.5551,0,0,0,0,0,0,0,-2.5253,-2.5265,-2.5392,-2.5366,-2.5368,-2.5365,-2.5374,-2.5431,-2.5462,-2.5415,-2.5414,-2.5425,-2.5492,-2.5514,-2.5521,-2.5609,-2.5544,-2.5549,-2.5552,-2.5554,-2.5756,-2.5758,0,0,0,0,0,0,-2.5246,-2.5261,-2.539,-2.5395,-2.5307,-2.537,-2.538,-2.5412,-2.5461,-2.5467,-2.5427,-2.5424,-2.5506,-2.5515,-2.5524,-2.5611,-2.555,-2.5555,-2.5558,-2.5754,-2.5757,-2.5759,0,0,0,0,0,0,-2.5242,-2.5257,-2.5386,-2.5328,-2.5344,-2.5375,-2.541,-2.5414,-2.5436,-2.547,-2.5475,-2.5444,-2.5505,-2.5516,-2.5581,-2.5614,-2.5557,-2.5562,-2.5751,-2.5755,-2.5758,-2.5786,0,0,0,0,0,0,-2.5237,-2.5256,-2.5284,-2.5329,-2.5347,-2.5443,-2.5412,-2.5417,-2.5446,-2.5444,-2.5488,-2.5493,-2.5504,-2.5573,-2.5586,-2.562,-2.5566,-2.5748,-2.5753,-2.5757,-2.5782,-2.579,-2.5797,0,0,0,0,0,-2.5231,-2.5288,-2.5286,-2.5301,-2.5384,-2.5445,-2.5456,-2.5469,-2.5449,-2.5477,-2.5499,-2.5491,-2.5608,-2.558,-2.5595,-2.563,-2.5746,-2.5752,-2.5756,-2.5779,-2.5789,-2.5796,0,0,0,0,0,0,-2.5245,-2.5294,-2.5292,-2.5366,-2.5402,-2.5444,-2.548,-2.5478,-2.5519,-2.5515,-2.5528,-2.5538,-2.5603,-2.5623,-2.5591,-2.5702,-2.5675,-2.5683,-2.5687,-2.5696,-2.5703,-2.5696,-2.557,0,0,0,0,0,-2.5258,-2.5305,-2.5344,-2.5405,-2.5423,-2.5449,-2.5476,-2.5483,-2.552,-2.5534,-2.5561,-2.5596,-2.564,-2.5669,-2.5712,-2.5785,-2.5794,-2.5817,-2.5824,-2.583,-2.5837,-2.5876,-2.5887,-2.5775,-2.5775,-2.5775,0,0,-2.5283,-2.5315,-2.5344,-2.5409,-2.5438,-2.5485,-2.5461,-2.5512,-2.5547,-2.5542,-2.5605,-2.5625,-2.5665,-2.5734,-2.5766,-2.5753,-2.5869,-2.5836,-2.5841,-2.5844,-2.5883,-2.5893,-2.5902,-2.5779,-2.5778,-2.5778,0,0,-2.5352,-2.5382,-2.5436,-2.5465,-2.5509,-2.5526,-2.5539,-2.5582,-2.5595,-2.5659,-2.5656,-2.5697,-2.5774,-2.5802,-2.5827,-2.5908,-2.5902,-2.5921,-2.5958,-2.5996,-2.6005,-2.6013,-2.6041,-2.6051,-2.5928,-2.5928,-2.5928,0,-2.5377,-2.545,-2.5464,-2.5516,-2.5544,-2.5543,-2.5597,-2.5625,-2.568,-2.5699,-2.5684,-2.578,-2.5807,-2.5883,-2.5903,-2.5923,-2.5937,-2.5916,-2.6003,-2.6011,-2.6018,-2.6046,-2.6056,-2.593,-2.593,-2.5929,-2.5929,0,-2.5478,-2.5528,-2.5567,-2.5621,-2.5654,-2.5707,-2.5728,-2.5759,-2.5764,-2.5781,-2.5846,-2.5878,-2.5927,-2.5946,-2.595,-2.6022,-2.6013,-2.6,-2.5972,-2.6031,-2.6057,-2.6067,-2.5933,-2.5932,-2.5931,-2.5931,0,0,-2.5559,-2.5622,-2.5635,-2.566,-2.5709,-2.5747,-2.5799,-2.5849,-2.5875,-2.5913,-2.5957,-2.6022,-2.6011,-2.6039,-2.6046,-2.608,-2.6142,-2.6063,-2.6065,-2.6076,-2.6222,-2.6231,-2.6243,-2.6139,-2.6141,-2.6142,-2.6219,0,-2.5633,-2.5728,-2.5742,-2.5824,-2.587,-2.587,-2.5915,-2.5949,-2.5967,-2.6008,-2.6027,-2.6073,-2.6055,-2.6072,-2.6106,-2.6127,-2.6171,-2.6122,-2.6178,-2.618,-2.6168,-2.6257,-2.6266,-2.6337,-2.6229,-2.6231,-2.6232,0,-2.5732,-2.5775,-2.5862,-2.5904,-2.5924,-2.5965,-2.6011,-2.6051,-2.6089,-2.61,-2.6131,-2.6134,-2.6187,-2.6158,-2.6231,-2.6197,-2.6221,-2.6234,-2.6237,-2.6243,-2.6209,-2.6264,-2.636,-2.637,-2.6248,-2.6247,-2.6246,0,-2.5782,-2.5861,-2.5923,-2.5944,-2.5995,-2.6024,-2.6046,-2.6083,-2.6112,-2.6152,-2.6171,-2.6216,-2.6241,-2.6275,-2.629,-2.6267,-2.6362,-2.6334,-2.6371,-2.6371,-2.639,-2.6389,-2.6491,-2.6407,-2.6407,-2.6406,-2.6406,0,-2.5863,-2.5916,-2.5946,-2.5984,-2.6044,-2.6059,-2.6117,-2.6139,-2.6171,-2.6213,-2.6215,-2.6253,-2.6271,-2.6312,-2.6324,-2.6382,-2.6393,-2.6402,-2.6405,-2.6402,-2.6401,-2.6417,-2.6413,-2.6409,-2.6409,-2.6408,-2.6408,0,-2.5929,-2.5951,-2.6019,-2.6062,-2.6074,-2.6116,-2.6152,-2.6189,-2.6207,-2.6259,-2.6272,-2.63,-2.6348,-2.6367,-2.6426,-2.6434,-2.65,-2.6499,-2.6488,-2.6489,-2.6525,-2.6521,-2.6641,-2.6657,-2.6562,-2.6563,-2.6564,0,-2.5979,-2.602,-2.6068,-2.6097,-2.612,-2.6166,-2.6196,-2.6213,-2.6243,-2.629,-2.6321,-2.637,-2.641,-2.6487,-2.6511,-2.6556,-2.6555,-2.6594,-2.6562,-2.6558,-2.6555,-2.6553,-2.6556,-2.66,-2.6601,-2.6602,-2.6602,0,-2.6065,-2.6074,-2.6118,-2.6165,-2.6201,-2.6239,-2.6276,-2.6299,-2.6321,-2.6355,-2.6406,-2.6437,-2.6497,-2.6545,-2.6592,-2.6613,-2.6611,-2.6613,-2.6624,-2.6621,-2.6612,-2.6617,-2.6504,-2.661,-2.6609,-2.6608,-2.6608,-2.6608,-2.6124,-2.616,-2.62,-2.6249,-2.6278,-2.6313,-2.6349,-2.6372,-2.6415,-2.6467,-2.6474,-2.6527,-2.6564,-2.6626,-2.665,-2.6691,-2.6681,-2.6697,-2.6701,-2.6704,-2.6707,-2.6607,-2.67,-2.67,-2.6699,-2.6699,-2.6699,0,-2.621,-2.6236,-2.628,-2.6332,-2.637,-2.6367,-2.6407,-2.6439,-2.6487,-2.6522,-2.6561,-2.6619,-2.6665,-2.6694,-2.674,-2.6768,-2.6768,-2.678,-2.6777,-2.6782,-2.6714,-2.6699,-2.6779,-2.6779,-2.6779,-2.6779,-2.6779,-2.6779,-2.6259,-2.6321,-2.6335,-2.6411,-2.6435,-2.6489,-2.6513,-2.6544,-2.6572,-2.6637,-2.6676,-2.6695,-2.6727,-2.6776,-2.6818,-2.6825,-2.6842,-2.6854,-2.686,-2.6795,-2.6787,-2.6779,-2.6766,-2.6858,-2.6858,-2.6925,-2.6926,-2.6927]}]]